This is the latest recevied weather packets stored in our database for station/object N5RPG. If no packets are shown the sender has not sent any weather packets the latest 10 day(s).
| Time | Temp. | Humidity | Pressure | Rain* | Wind** | Luminosity | Snow |
|---|---|---|---|---|---|---|---|
| 1777506915 | 18.89° C | 97% | 1012.6 hPa | 0 mm | - | 29 W/m² | - |
| 1777506612 | 18.89° C | 98% | 1012.9 hPa | 0 mm | - | 25 W/m² | - |
| 1777506308 | 18.89° C | 98% | 1012.8 hPa | 0 mm | - | 21 W/m² | - |
| 1777506004 | 19.44° C | 98% | 1012.6 hPa | 0 mm | - | 47 W/m² | - |
| 1777505700 | 19.44° C | 98% | 1012.6 hPa | 0 mm | - | 76 W/m² | - |
| 1777505397 | 19.44° C | 98% | 1012.6 hPa | 0 mm | - | 93 W/m² | - |
| 1777505093 | 19.44° C | 98% | 1012 hPa | 0 mm | - | 108 W/m² | - |
| 1777504790 | 19.44° C | 98% | 1011.8 hPa | 0 mm | - | 114 W/m² | - |
| 1777504488 | 20° C | 98% | 1011.9 hPa | 0 mm | - | 103 W/m² | - |
| 1777504183 | 20° C | 98% | 1011.7 hPa | 0 mm | - | 127 W/m² | - |
| 1777503879 | 20° C | 98% | 1011.1 hPa | 0 mm | - | 281 W/m² | - |
| 1777503575 | 19.44° C | 98% | 1011.1 hPa | 0 mm | - | 373 W/m² | - |
| 1777503273 | 19.44° C | 98% | 1010.8 hPa | 0 mm | - | 230 W/m² | - |
| 1777502969 | 19.44° C | 98% | 1011 hPa | 0 mm | - | 220 W/m² | - |
| 1777502666 | 18.89° C | 98% | 1011 hPa | 0 mm | - | 241 W/m² | - |
| 1777502363 | 18.89° C | 98% | 1010.9 hPa | 0 mm | - | 177 W/m² | - |
| 1777502060 | 18.89° C | 98% | 1010.8 hPa | 0 mm | - | 242 W/m² | - |
| 1777501757 | 18.33° C | 98% | 1010.9 hPa | 0.51 mm | - | 126 W/m² | - |
| 1777501454 | 18.33° C | 98% | 1011.2 hPa | 1.78 mm | - | 83 W/m² | - |
| 1777501151 | 18.33° C | 98% | 1012.2 hPa | 4.83 mm | - | 54 W/m² | - |
| 1777500850 | 18.33° C | 98% | 1012.3 hPa | 3.56 mm | - | 42 W/m² | - |
| 1777500546 | 18.33° C | 98% | 1013.7 hPa | 1.78 mm | - | 26 W/m² | - |
| 1777500243 | 18.33° C | 98% | 1013.8 hPa | 3.56 mm | - | 18 W/m² | - |
| 1777499939 | 18.33° C | 98% | 1013.8 hPa | 4.32 mm | - | 31 W/m² | - |
| 1777499635 | 18.33° C | 98% | 1013.7 hPa | 3.56 mm | - | 30 W/m² | - |
* Rain latest hour (hover to see other rain measurements)
** Current wind speed in m/s (hover to see current wind gust speed)